When you browse on this site, cookies collect data to enhance your experience and personalize the content and advertising you see.
Visit our Privacy Policy to learn more. By continuing to use the site, you agree to this use of cookies and data.
  • In Switzerland
  • List of Countries
  • For 7 days
  • Water Temperature
  • Weather Map
  • Weather Widgets
  • user-avatar
    Login

    Hourly Weather Salta

    Today, 14 November, Thursday

    Time Temperature Precipitation Wind Pressure Humidity
    00:00 +18°C° 0 mm 0 mps 652 mmHg 86%
    01:00 +18°C° 0 mm 0 mps 652 mmHg 86%
    02:00 +17°C° 0 mm 0 mps 651 mmHg 87%
    03:00 +17°C° 0 mm 0 mps 651 mmHg 87%
    04:00 +18°C° 0 mm 1 mps 651 mmHg 87%
    05:00 +18°C° 0 mm 1 mps 651 mmHg 87%
    06:00 +20°C° 0 mm 1 mps 652 mmHg 81%
    07:00 +22°C° 0 mm 1 mps 654 mmHg 75%
    08:00 +24°C° 0 mm 1 mps 655 mmHg 69%
    09:00 +25°C° 0 mm 1 mps 655 mmHg 61%
    10:00 +27°C° 0 mm 2 mps 655 mmHg 53%
    11:00 +28°C° 0 mm 2 mps 655 mmHg 44%
    12:00 +28°C° 0 mm 3 mps 654 mmHg 41%
    13:00 +29°C° 0 mm 3 mps 654 mmHg 38%
    14:00 +30°C° 0 mm 3 mps 654 mmHg 36%
    15:00 +29°C° 0 mm 3 mps 653 mmHg 36%
    16:00 +28°C° 0 mm 3 mps 652 mmHg 37%
    17:00 +28°C° 0 mm 3 mps 652 mmHg 38%
    18:00 +26°C° 0 mm 2 mps 652 mmHg 43%
    19:00 +24°C° 0 mm 2 mps 652 mmHg 48%
    20:00 +22°C° 0 mm 1 mps 652 mmHg 53%
    21:00 +22°C° 0 mm 1 mps 652 mmHg 54%
    22:00 +21°C° 0 mm 1 mps 652 mmHg 55%
    23:00 +21°C° 0 mm 1 mps 653 mmHg 56%

    Tomorrow, 15 November, Friday

    Time Temperature Precipitation Wind Pressure Humidity
    00:00 +20°C° 0 mm 1 mps 652 mmHg 57%
    01:00 +20°C° 0 mm 1 mps 652 mmHg 58%
    02:00 +17°C° 0 mm 0 mps 651 mmHg 60%
    03:00 +17°C° 0 mm 0 mps 651 mmHg 61%
    04:00 +17°C° 0 mm 0 mps 651 mmHg 63%
    05:00 +16°C° 0 mm 0 mps 651 mmHg 64%
    06:00 +20°C° 0 mm 1 mps 652 mmHg 59%
    07:00 +22°C° 0 mm 1 mps 653 mmHg 55%
    08:00 +25°C° 0 mm 1 mps 654 mmHg 50%
    09:00 +26°C° 0 mm 2 mps 654 mmHg 48%
    10:00 +27°C° 0 mm 2 mps 654 mmHg 47%
    11:00 +28°C° 0 mm 3 mps 653 mmHg 46%
    12:00 +28°C° 0 mm 3 mps 653 mmHg 45%
    13:00 +29°C° 0 mm 3 mps 652 mmHg 44%
    14:00 +29°C° 0 mm 4 mps 651 mmHg 43%
    15:00 +29°C° 0 mm 3 mps 651 mmHg 45%
    16:00 +28°C° 0 mm 3 mps 650 mmHg 47%
    17:00 +28°C° 0 mm 3 mps 650 mmHg 48%
    18:00 +26°C° 0 mm 2 mps 650 mmHg 54%
    19:00 +25°C° 0 mm 2 mps 650 mmHg 59%
    20:00 +23°C° 0 mm 1 mps 650 mmHg 64%
    21:00 +23°C° 0 mm 1 mps 651 mmHg 64%
    22:00 +23°C° 0 mm 1 mps 651 mmHg 64%
    23:00 +21°C° 0 mm 0 mps 652 mmHg 64%

    Day after tomorrow, 16 November, Saturday

    Time Temperature Precipitation Wind Pressure Humidity
    00:00 +20°C° 0 mm 0 mps 651 mmHg 66%
    01:00 +20°C° 0 mm 0 mps 650 mmHg 68%
    02:00 +19°C° 0 mm 0 mps 650 mmHg 70%
    03:00 +19°C° 0.1 mm 0 mps 649 mmHg 71%
    04:00 +18°C° 0.1 mm 0 mps 649 mmHg 71%
    05:00 +18°C° 0.1 mm 0 mps 649 mmHg 72%
    06:00 +22°C° 0 mm 1 mps 650 mmHg 66%
    07:00 +23°C° 0 mm 1 mps 651 mmHg 61%
    08:00 +25°C° 0 mm 1 mps 652 mmHg 55%
    09:00 +27°C° 0.1 mm 1 mps 652 mmHg 51%
    10:00 +28°C° 0.1 mm 2 mps 652 mmHg 47%
    11:00 +29°C° 0.1 mm 3 mps 652 mmHg 43%
    12:00 +30°C° 0.1 mm 3 mps 652 mmHg 42%
    13:00 +30°C° 0.1 mm 3 mps 651 mmHg 40%
    14:00 +31°C° 0.1 mm 3 mps 650 mmHg 39%
    15:00 +30°C° 0.1 mm 3 mps 650 mmHg 40%
    16:00 +30°C° 0.1 mm 2 mps 650 mmHg 41%
    17:00 +29°C° 0.1 mm 2 mps 649 mmHg 42%
    18:00 +28°C° 0 mm 2 mps 650 mmHg 47%
    19:00 +26°C° 0 mm 1 mps 650 mmHg 51%
    20:00 +25°C° 0 mm 1 mps 650 mmHg 56%
    21:00 +24°C° 0.1 mm 1 mps 651 mmHg 57%
    22:00 +23°C° 0.1 mm 1 mps 651 mmHg 58%
    23:00 +23°C° 0.1 mm 1 mps 651 mmHg 59%

    17 November, Sunday

    Time Temperature Precipitation Wind Pressure Humidity
    00:00 +22°C° 0 mm 1 mps 651 mmHg 60%
    01:00 +20°C° 0 mm 0 mps 650 mmHg 60%
    02:00 +19°C° 0 mm 0 mps 650 mmHg 61%
    03:00 +19°C° 0 mm 0 mps 650 mmHg 61%
    04:00 +19°C° 0 mm 0 mps 650 mmHg 61%
    05:00 +19°C° 0 mm 0 mps 650 mmHg 60%
    06:00 +22°C° 0 mm 1 mps 651 mmHg 57%
    07:00 +23°C° 0 mm 1 mps 651 mmHg 53%
    08:00 +24°C° 0 mm 1 mps 652 mmHg 50%
    09:00 +26°C° 0 mm 2 mps 652 mmHg 46%
    10:00 +27°C° 0 mm 2 mps 652 mmHg 43%
    11:00 +29°C° 0 mm 3 mps 652 mmHg 39%
    12:00 +29°C° 0.1 mm 3 mps 652 mmHg 37%
    13:00 +30°C° 0.1 mm 3 mps 651 mmHg 35%
    14:00 +31°C° 0.1 mm 3 mps 651 mmHg 33%
    15:00 +30°C° 0 mm 3 mps 651 mmHg 34%
    16:00 +30°C° 0 mm 3 mps 651 mmHg 34%
    17:00 +29°C° 0 mm 2 mps 651 mmHg 35%
    18:00 +28°C° 0 mm 2 mps 651 mmHg 39%
    19:00 +26°C° 0 mm 1 mps 651 mmHg 44%
    20:00 +24°C° 0 mm 1 mps 651 mmHg 49%
    21:00 +24°C° 0 mm 1 mps 652 mmHg 49%
    22:00 +23°C° 0 mm 1 mps 652 mmHg 50%
    23:00 +21°C° 0 mm 0 mps 652 mmHg 50%

    18 November, Monday

    Time Temperature Precipitation Wind Pressure Humidity
    00:00 +20°C° 0 mm 0 mps 651 mmHg 51%
    01:00 +20°C° 0 mm 0 mps 651 mmHg 52%
    02:00 +19°C° 0 mm 0 mps 650 mmHg 53%
    03:00 +19°C° 0 mm 0 mps 650 mmHg 54%
    04:00 +19°C° 0 mm 0 mps 650 mmHg 54%
    05:00 +18°C° 0 mm 0 mps 650 mmHg 55%
    06:00 +22°C° 0 mm 1 mps 651 mmHg 51%
    07:00 +24°C° 0 mm 1 mps 652 mmHg 46%
    08:00 +26°C° 0 mm 1 mps 653 mmHg 42%
    09:00 +27°C° 0 mm 1 mps 653 mmHg 39%
    10:00 +29°C° 0 mm 2 mps 653 mmHg 36%
    11:00 +31°C° 0 mm 2 mps 654 mmHg 33%
    12:00 +31°C° 0.1 mm 2 mps 653 mmHg 31%
    13:00 +32°C° 0.1 mm 2 mps 653 mmHg 30%
    14:00 +34°C° 0.1 mm 3 mps 653 mmHg 29%
    15:00 +32°C° 0 mm 2 mps 652 mmHg 29%
    16:00 +32°C° 0 mm 2 mps 652 mmHg 30%
    17:00 +32°C° 0 mm 2 mps 652 mmHg 30%
    18:00 +29°C° 0 mm 2 mps 652 mmHg 36%
    19:00 +27°C° 0 mm 1 mps 652 mmHg 42%
    20:00 +25°C° 0 mm 1 mps 651 mmHg 48%
    21:00 +24°C° 0 mm 1 mps 652 mmHg 49%
    22:00 +23°C° 0 mm 1 mps 652 mmHg 50%
    23:00 +23°C° 0 mm 1 mps 652 mmHg 51%

    19 November, Tuesday

    Time Temperature Precipitation Wind Pressure Humidity
    00:00 +22°C° 0 mm 1 mps 652 mmHg 52%
    01:00 +20°C° 0 mm 0 mps 651 mmHg 53%
    02:00 +19°C° 0 mm 0 mps 651 mmHg 54%
    03:00 +19°C° 0 mm 0 mps 651 mmHg 54%
    04:00 +19°C° 0 mm 0 mps 651 mmHg 55%
    05:00 +18°C° 0 mm 0 mps 651 mmHg 55%
    06:00 +23°C° 0 mm 1 mps 652 mmHg 50%
    07:00 +25°C° 0 mm 1 mps 653 mmHg 44%
    08:00 +27°C° 0 mm 1 mps 654 mmHg 39%
    09:00 +28°C° 0 mm 2 mps 654 mmHg 36%
    10:00 +30°C° 0 mm 2 mps 654 mmHg 33%
    11:00 +31°C° 0 mm 3 mps 654 mmHg 30%
    12:00 +33°C° 0 mm 3 mps 654 mmHg 28%
    13:00 +34°C° 0 mm 3 mps 653 mmHg 26%
    14:00 +35°C° 0 mm 3 mps 652 mmHg 23%
    15:00 +35°C° 0 mm 4 mps 652 mmHg 23%
    16:00 +34°C° 0 mm 4 mps 651 mmHg 23%
    17:00 +34°C° 0 mm 4 mps 651 mmHg 23%
    18:00 +30°C° 0 mm 3 mps 651 mmHg 27%
    19:00 +28°C° 0 mm 2 mps 650 mmHg 32%
    20:00 +25°C° 0 mm 2 mps 650 mmHg 37%
    21:00 +25°C° 0 mm 1 mps 650 mmHg 38%
    22:00 +24°C° 0 mm 1 mps 651 mmHg 39%
    23:00 +24°C° 0 mm 1 mps 651 mmHg 39%
    Show more